SCP
0 0 0 0 0 0 0 0 0 0 0 0 0 0 0 0 0 0 0 0 0 0 0 0 0 0 0 0 0 0 0 0 0 0 0 0 0 0 0 0 0 0 0 0 0
0 0 0 0 0 0 0 0 0 0 0 0 0 0 0 0 0 0 0 0 0 0 0 0 0 0 0 0 0 0 0 0 0 0 0 0 0 0 0 0 0 0 0 0 0
0 0 0 -0 0 0 0 0 0 0 0 0 0 0 0 0 0 0 0 0 0 0 0 0 0 0 0 0 0 0 0 0 0 0 0 0 0 0 0 0 0 0 0 0 0
0 0 0 0 0 0 0 0 0 0 0 0 0 0 0 0 0 0 0 0 0 0 0 0 0 0 0 0 0 0 0 0 0 0 0 0 0 0 0 0 0 0 0 0 0
0 0 0 0 0 0 0 0 0 0 0 0 0 0 0 0 0 0 0 0 0 0 0 0 0 0 0 0 0 0 0 0 0 0 0 0 0 0 0 0 0 0 0 0 0
0 0 0 0 0 0 0 0 0 0 0 0 0 0 0 0 0 0 0 0 0 0 0 0 0 0 0 0 0 0 0 0 0 0 0 0 0 0 0 0 0 0 0 0 0
0 0 0 0 0 0 0 0 0 0 0 0 0 0 0 0 0 0 0 0 0 0 0 0 0 0 0 0 0 0 0 0 0 0 0 0 -0 0 0 0 0 0 0 0 0
0 0 0 0 0 0 0 0 0 0 0 0 0 0 0 0 0 0 0 0 0 0 0 0 0 0 0 0 0 0 0 0 0 0 0 0 -0 0 0 0 0 0 0 0 0
0 0 0 0 0 0 0 0 0 0 0 0 0 0 0 0 0 0 0 0 0 0 0 0 0 0 0 0 0 0 0 0 0 0 0 0 0 0 0 0 0 0 0 0 0
0 0 0 0 0 0 0 0 0 0 0 0 0 0 0 0 0 0 0 0 0 0 0 0 0 0 0 0 0 0 0 0 0 0 0 0 0 0 0 0 0 0 0 0 0
0 0 0 0 0 0 0 0 0 0 0 0 0 0 0 0 0 0 0 0 0 0 0 0 0 0 0 0 0 0 0 0 0 0 0 0 0 0 0 0 0 0 0 0 0
0 0 0 0 0 0 0 0 0 0 0 0 0 0 0 0 0 0 0 0 0 0 0 0 0 0 0 0 0 0 0 0 0 0 0 0 0 -0 0 0 0 0 0 0 0
0 0 0 0 0 0 0 0 0 0 0 0 0 0 0 0 0 0 0 0 0 0 0 0 0 0 0 0 0 0 0 0 0 0 0 0 -0 0 0 0 0 0 0 0 0
0 0 0 0 0 0 0 0 0 0 0 0 0 0 0 0 0 0 0 0 0 0 0 0 0 0 0 0 0 0 0 0 0 0 0 0 -0 -0 0 0 0 0 0 0 0
-0 0 0 0 0 0 0 0 0 0 0 0 0 0 0 0 0 0 0 0 0 0 0 0 0 0 0 0 0 0 0 0 0 0 0 0 0 -0 0 0 0 0 0 0 0
0 0 0 0 0 0 0 0 0 0 0 0 0 0 0 0 0 0 0 0 0 0 0 0 0 0 0 0 0 0 0 0 0 0 0 0 0 -0 0 0 0 0 0 0 0
0 0 0 0 0 0 0 0 0 0 0 0 0 0 0 0 0 0 0 0 0 0 0 0 0 0 0 0 0 0 0 0 0 0 0 0 0 0 0 0 0 0 0 0 0
0 -0 0 0 0 0 0 0 0 0 0 0 0 0 0 0 0 0 0 0 0 0 0 0 0 0 0 0 0 0 0 0 0 0 0 0 0 0 0 -0 0 0 0 0 0
0 -0 0 0 0 0 0 0 0 0 0 0 0 0 0 0 0 0 0 0 0 0 0 0 0 0 0 0 0 0 0 0 0 0 0 0 0 0 0 0 0 0 0 0 0
-0 -0 0 0 0 0 0 0 0 0 0 0 0 0 0 0 0 0 0 0 0 0 0 0 0 0 0 0 0 0 0 0 0 0 0 0 0 0 0 0 0 0 0 0 0
0 -0 0 0 0 0 0 0 0 0 0 0 0 0 0 0 0 0 0 -0 0 0 0 0 0 -0 0 0 0 0 0 0 0 0 0 -0 -0 0 0 0 0 0 0 0 0
0 0 0 0 0 0 0 0 0 0 0 0 0 0 0 0 0 0 0 0 0 0 0 0 0 0 0 0 0 0 0 0 0 -0 -0 -0 -0 0 0 0 0 0 0 0 0
0 0 0 0 0 0 0 0 0 0 0 0 0 0 0 -0 0 0 0 0 0 0 0 0 0 0 -0 0 0 -0 -0 -0 -0 -0 -0 -0 0 -0 0 -0 0 0 0 0 0
0 0 0 0 0 0 0 0 0 0 0 0 0 0 -0 -0 -0 0 0 -0 0 0 0 0 0 0 -0 0 -0 0 -0 0 -0 -0 -0 -0 -0 0 0 0 0 0 0 0 0
0 0 0 0 0 0 0 0 0 0 0 0 0 -0 -0 -0 -0 -0 0 0 0 0 0 0 0 0 -0 -0 -0 0 -0 0 0 -0 -0 -0 -0 0 0 0 0 0 0 0 0
0 0 0 0 0 0 0 0 0 0 0 0 0 -0 -0 0 -0 -0 0 0 0 -0 0 0 0 0 0 -0 -0 0 0 0 -0 0 0 0 0 0 0 0 -0 0 0 0 0
0 0 0 0 0 0 0 0 0 0 0 0 -0 -0 -0 0 -0 0 -0 -0 -0 0 0 0 0 0 0 0 -0 -0 -0 -0 -0 -0 0 0 0 0 -0 -0 0 0 0 0 0
Wind_Speed_500mb
37 32 28 28 25 22 21 19 19 17 14 14 28 31 26 20 22 32 32 22 21 25 20 20 19 23 18 14 23 9 3 15 18 16 12 3 2 5 10 13 10 11 12 10 15
39 37 31 28 27 23 21 18 19 19 19 17 24 31 31 23 26 37 29 21 25 21 20 17 16 12 9 8 14 13 11 15 8 9 11 7 12 27 5 10 8 11 12 10 13
43 38 37 32 28 25 21 19 17 17 21 21 20 25 19 36 28 37 33 35 37 29 25 15 13 8 8 12 11 10 23 13 6 29 30 16 11 30 14 12 25 19 17 8 7
40 43 40 35 29 27 22 19 17 16 17 20 21 22 19 20 12 7 10 17 40 41 31 20 8 4 5 10 15 10 9 22 7 30 14 8 13 11 18 19 24 30 20 18 19
44 41 41 35 30 28 23 20 18 15 13 15 17 21 26 21 21 10 14 13 12 31 34 24 14 4 6 8 16 11 5 21 30 44 53 53 40 23 36 54 51 41 35 29 30
43 44 43 34 33 28 25 22 20 16 11 11 16 20 25 11 20 27 24 24 16 15 16 22 11 15 13 10 7 13 20 19 29 42 35 28 38 47 39 48 41 48 45 37 43
45 46 42 33 33 29 27 22 18 16 15 13 13 19 26 37 19 32 42 30 26 16 12 17 21 17 3 7 17 14 13 16 16 13 12 25 40 35 36 46 48 55 52 45 48
48 48 43 38 35 30 28 22 20 19 17 15 15 15 17 7 33 30 31 21 32 25 19 15 11 11 20 17 13 7 6 9 9 16 16 20 45 4 31 54 62 58 57 55 59
50 49 47 43 36 30 27 24 24 18 19 18 15 15 19 13 21 30 39 26 25 25 23 22 15 10 4 5 11 12 17 9 9 17 11 24 34 13 47 55 52 59 60 62 68
47 54 51 48 40 30 30 28 21 17 18 16 18 9 23 8 10 13 40 37 17 21 21 18 12 6 8 13 22 8 10 8 13 4 9 31 40 15 37 45 50 62 69 66 63
50 52 52 52 44 33 38 31 12 10 33 24 24 12 1 14 8 8 23 37 21 11 11 6 10 20 29 16 14 12 19 25 11 13 12 21 30 26 29 42 44 51 64 77 72
44 52 50 55 48 43 43 37 18 5 11 56 41 44 13 11 8 12 25 26 15 11 10 1 24 16 13 12 18 22 29 28 23 20 21 21 36 22 24 35 43 48 65 79 75
48 54 53 58 51 49 51 54 14 7 6 16 47 49 43 37 15 26 34 26 8 13 15 20 10 19 14 16 19 21 23 27 29 14 30 25 55 38 27 44 55 62 69 73 71
61 43 54 65 59 57 54 46 37 9 4 10 12 12 24 22 15 51 45 21 7 21 12 22 26 25 10 26 18 31 14 23 25 13 19 4 23 19 13 29 36 49 60 68 66
59 42 57 83 55 65 48 46 30 7 3 7 8 11 21 33 8 23 44 23 16 13 10 12 11 20 37 30 22 16 13 18 17 14 14 31 17 11 28 41 29 20 50 62 64
48 59 55 89 64 51 40 45 32 6 14 11 10 11 17 19 4 9 25 32 3 17 22 15 9 12 13 19 28 3 12 22 8 13 25 21 21 26 26 14 12 16 47 61 66
39 67 38 102 80 53 60 63 9 9 2 13 13 12 20 12 11 10 20 21 14 12 17 17 30 3 6 8 10 18 9 7 15 16 16 11 23 44 7 14 18 24 40 47 59
35 59 35 84 78 77 89 8 7 8 10 4 9 10 15 14 11 15 18 20 28 6 5 14 11 34 19 15 12 22 26 11 11 7 10 27 21 14 26 48 67 61 48 28 56
40 33 55 79 71 87 65 5 14 12 13 16 15 10 14 13 5 17 24 30 16 34 17 9 12 4 7 33 20 9 20 40 25 26 10 10 13 12 18 24 30 35 40 53 59
15 23 41 75 84 88 19 12 9 7 13 6 14 21 19 19 17 17 15 8 27 25 27 6 8 9 11 13 21 16 9 8 11 10 11 12 11 13 12 35 33 19 31 53 64
8 14 48 84 89 53 10 10 8 10 16 11 14 15 14 12 17 16 9 9 21 14 33 14 9 3 11 20 24 20 20 12 11 12 7 7 13 11 10 22 22 20 37 58 68
3 8 77 93 17 11 10 11 12 7 8 5 7 13 16 13 15 10 16 16 27 22 20 20 8 11 30 7 27 28 28 27 8 10 19 10 17 6 11 25 16 15 34 47 57
19 12 89 83 11 15 6 5 4 9 10 13 13 11 17 10 7 16 12 17 39 24 27 19 9 8 8 11 13 14 26 35 32 8 22 18 23 8 27 25 8 25 41 49 58
20 7 28 41 12 24 21 13 7 11 11 12 8 17 13 11 16 6 9 7 36 22 23 25 9 14 14 6 3 13 33 42 40 21 19 30 30 41 42 22 13 10 45 50 66
12 9 19 17 14 28 17 8 18 9 12 27 8 19 16 9 13 14 12 12 15 23 12 11 12 18 32 35 23 19 23 43 43 49 26 23 28 38 46 34 6 15 39 53 62
8 11 24 21 35 21 28 18 13 19 13 13 14 17 24 17 13 7 10 9 11 20 18 12 7 5 14 34 44 33 33 36 49 35 40 19 38 32 48 34 11 38 46 49 60
19 11 23 35 23 24 20 18 21 10 19 24 24 19 21 28 43 52 30 28 12 15 18 7 5 3 17 7 20 14 48 40 44 33 29 27 31 19 23 15 5 30 48 58 65
Wind_Direction_500mb
306 304 290 276 271 272 276 273 261 251 249 233 198 205 217 223 232 243 243 233 232 238 250 260 264 255 254 234 210 193 185 227 219 186 235 107 153 204 320 275 233 198 212 259 307
289 304 293 276 269 267 269 264 256 244 235 220 209 214 226 232 245 255 244 233 221 232 249 270 278 276 220 230 217 188 216 229 215 212 258 238 305 302 328 310 260 228 216 248 290
286 292 295 282 265 264 266 256 251 244 235 231 219 205 225 229 236 260 259 238 228 239 250 257 267 285 232 217 217 216 242 258 289 246 254 266 249 265 270 262 248 240 237 225 274
273 280 289 283 264 260 259 246 240 237 234 232 225 218 214 187 205 170 192 227 234 217 228 239 240 235 258 220 231 269 258 238 259 264 279 258 266 246 239 252 281 270 240 218 224
264 267 281 281 270 257 253 238 235 231 232 225 217 208 196 216 228 164 150 118 160 196 216 230 241 214 227 256 257 234 252 273 271 266 272 279 272 254 259 274 282 276 258 252 244
254 261 271 281 265 258 247 234 230 226 222 216 205 205 209 221 241 194 163 159 145 154 198 217 226 240 274 258 240 296 303 281 265 262 273 269 273 276 271 277 267 277 251 249 262
244 254 261 273 259 258 241 232 231 231 226 217 207 222 230 240 229 214 221 201 181 204 241 252 245 234 306 288 289 283 297 297 252 250 245 275 271 253 271 279 276 268 263 246 261
240 250 252 259 255 254 236 222 234 226 235 228 228 241 251 256 217 199 211 228 231 208 225 241 246 270 245 293 309 291 265 261 231 210 242 199 246 183 252 260 265 267 266 255 261
246 243 245 246 244 244 228 224 235 238 233 220 231 247 268 233 232 216 214 216 202 211 223 243 246 240 220 244 272 198 255 242 294 220 238 205 268 231 250 261 265 269 271 264 261
249 240 237 238 237 235 215 220 227 224 204 208 221 262 249 223 194 203 215 210 183 198 218 237 204 191 170 201 229 238 256 231 225 220 251 259 270 272 275 266 261 257 264 265 264
245 239 234 231 231 226 197 189 172 214 198 199 208 216 144 188 200 206 195 191 192 169 169 197 203 207 214 220 249 310 293 283 297 296 339 285 287 284 270 265 260 261 266 264 262
261 238 231 226 218 207 204 194 198 126 240 233 234 227 197 169 205 194 184 170 172 185 130 288 239 220 203 206 238 249 266 272 271 276 296 292 284 276 270 269 258 252 256 260 260
286 234 230 221 208 199 205 209 210 263 280 262 230 233 232 230 222 209 188 191 164 171 184 212 204 202 210 226 231 237 240 260 267 305 287 298 283 271 255 245 255 244 251 257 260
265 247 224 215 186 195 204 207 213 243 347 246 198 234 198 194 242 224 200 170 185 198 199 239 236 239 249 234 212 252 188 231 248 247 256 244 279 246 250 246 236 236 236 245 246
259 274 214 211 179 191 202 187 188 172 348 147 168 158 178 173 149 191 199 195 177 178 166 221 208 215 232 230 210 238 228 225 234 240 260 250 273 273 223 261 270 243 234 237 240
256 261 215 195 188 197 185 165 157 93 251 178 139 174 156 203 190 107 176 210 157 199 214 237 200 185 218 234 212 270 235 251 240 230 248 237 223 267 232 228 258 259 246 239 231
257 258 250 200 183 173 159 145 130 208 83 169 186 176 189 174 210 178 186 198 206 196 225 221 236 286 233 182 171 193 218 259 208 219 239 241 221 243 263 248 232 237 255 246 232
249 254 260 193 183 161 155 123 156 205 186 115 142 135 188 167 211 197 185 217 213 161 209 208 253 201 204 208 164 195 198 209 246 214 221 213 239 241 216 229 237 244 244 243 218
243 252 245 192 171 163 150 157 202 199 158 145 138 172 200 208 196 200 223 236 216 197 222 205 247 170 209 210 187 170 211 215 250 264 277 237 291 288 246 238 237 229 225 220 212
256 201 212 162 164 160 153 209 214 191 126 158 168 192 195 193 193 186 206 225 223 190 192 241 272 219 183 167 217 203 159 177 196 227 247 262 253 238 252 238 236 224 210 208 201
40 127 175 164 163 161 184 214 228 204 144 156 196 179 208 192 191 196 222 267 198 191 179 186 194 187 138 202 188 198 226 241 180 206 220 310 267 213 297 289 235 214 192 182 182
180 133 166 158 151 182 181 181 194 170 170 103 169 211 199 189 197 203 221 240 187 146 188 198 195 224 223 202 212 206 215 203 210 228 233 301 261 189 350 314 216 190 176 174 175
176 148 163 161 152 175 161 187 260 150 172 173 185 207 213 214 216 191 208 224 177 169 170 174 215 241 230 192 188 207 214 206 221 263 211 214 253 210 325 355 290 153 152 156 160
156 133 150 191 156 171 182 185 197 260 218 198 216 174 205 236 232 237 234 262 181 185 154 169 229 227 235 177 142 203 201 204 210 228 233 232 283 301 308 327 339 140 145 154 164
184 151 159 182 195 166 188 189 193 207 188 210 216 232 203 235 226 235 228 246 150 173 176 219 241 212 240 251 243 241 217 201 211 218 227 254 264 275 282 293 261 170 147 154 167
243 141 170 160 172 159 184 218 199 199 201 214 224 213 223 239 233 224 207 211 191 184 205 203 262 240 252 238 226 232 224 222 210 217 232 259 250 233 260 277 201 168 164 165 173
342 78 146 164 166 183 198 201 223 185 228 231 202 230 238 235 231 256 274 275 237 182 189 193 250 231 283 308 131 215 223 214 199 206 209 222 245 277 299 308 208 176 179 177 181
Wind_Speed_850mb
37 32 28 28 25 22 21 19 19 17 14 14 28 31 26 20 22 32 32 22 21 25 20 20 19 23 18 14 23 9 3 15 18 16 12 3 2 5 10 13 10 11 12 10 15
39 37 31 28 27 23 21 18 19 19 19 17 24 31 31 23 26 37 29 21 25 21 20 17 16 12 9 8 14 13 11 15 8 9 11 7 12 27 5 10 8 11 12 10 13
43 38 37 32 28 25 21 19 17 17 21 21 20 25 19 36 28 37 33 35 37 29 25 15 13 8 8 12 11 10 23 13 6 29 30 16 11 30 14 12 25 19 17 8 7
40 43 40 35 29 27 22 19 17 16 17 20 21 22 19 20 12 7 10 17 40 41 31 20 8 4 5 10 15 10 9 22 7 30 14 8 13 11 18 19 24 30 20 18 19
44 41 41 35 30 28 23 20 18 15 13 15 17 21 26 21 21 10 14 13 12 31 34 24 14 4 6 8 16 11 5 21 30 44 53 53 40 23 36 54 51 41 35 29 30
43 44 43 34 33 28 25 22 20 16 11 11 16 20 25 11 20 27 24 24 16 15 16 22 11 15 13 10 7 13 20 19 29 42 35 28 38 47 39 48 41 48 45 37 43
45 46 42 33 33 29 27 22 18 16 15 13 13 19 26 37 19 32 42 30 26 16 12 17 21 17 3 7 17 14 13 16 16 13 12 25 40 35 36 46 48 55 52 45 48
48 48 43 38 35 30 28 22 20 19 17 15 15 15 17 7 33 30 31 21 32 25 19 15 11 11 20 17 13 7 6 9 9 16 16 20 45 4 31 54 62 58 57 55 59
50 49 47 43 36 30 27 24 24 18 19 18 15 15 19 13 21 30 39 26 25 25 23 22 15 10 4 5 11 12 17 9 9 17 11 24 34 13 47 55 52 59 60 62 68
47 54 51 48 40 30 30 28 21 17 18 16 18 9 23 8 10 13 40 37 17 21 21 18 12 6 8 13 22 8 10 8 13 4 9 31 40 15 37 45 50 62 69 66 63
50 52 52 52 44 33 38 31 12 10 33 24 24 12 1 14 8 8 23 37 21 11 11 6 10 20 29 16 14 12 19 25 11 13 12 21 30 26 29 42 44 51 64 77 72
44 52 50 55 48 43 43 37 18 5 11 56 41 44 13 11 8 12 25 26 15 11 10 1 24 16 13 12 18 22 29 28 23 20 21 21 36 22 24 35 43 48 65 79 75
48 54 53 58 51 49 51 54 14 7 6 16 47 49 43 37 15 26 34 26 8 13 15 20 10 19 14 16 19 21 23 27 29 14 30 25 55 38 27 44 55 62 69 73 71
61 43 54 65 59 57 54 46 37 9 4 10 12 12 24 22 15 51 45 21 7 21 12 22 26 25 10 26 18 31 14 23 25 13 19 4 23 19 13 29 36 49 60 68 66
59 42 57 83 55 65 48 46 30 7 3 7 8 11 21 33 8 23 44 23 16 13 10 12 11 20 37 30 22 16 13 18 17 14 14 31 17 11 28 41 29 20 50 62 64
48 59 55 89 64 51 40 45 32 6 14 11 10 11 17 19 4 9 25 32 3 17 22 15 9 12 13 19 28 3 12 22 8 13 25 21 21 26 26 14 12 16 47 61 66
39 67 38 102 80 53 60 63 9 9 2 13 13 12 20 12 11 10 20 21 14 12 17 17 30 3 6 8 10 18 9 7 15 16 16 11 23 44 7 14 18 24 40 47 59
35 59 35 84 78 77 89 8 7 8 10 4 9 10 15 14 11 15 18 20 28 6 5 14 11 34 19 15 12 22 26 11 11 7 10 27 21 14 26 48 67 61 48 28 56
40 33 55 79 71 87 65 5 14 12 13 16 15 10 14 13 5 17 24 30 16 34 17 9 12 4 7 33 20 9 20 40 25 26 10 10 13 12 18 24 30 35 40 53 59
15 23 41 75 84 88 19 12 9 7 13 6 14 21 19 19 17 17 15 8 27 25 27 6 8 9 11 13 21 16 9 8 11 10 11 12 11 13 12 35 33 19 31 53 64
8 14 48 84 89 53 10 10 8 10 16 11 14 15 14 12 17 16 9 9 21 14 33 14 9 3 11 20 24 20 20 12 11 12 7 7 13 11 10 22 22 20 37 58 68
3 8 77 93 17 11 10 11 12 7 8 5 7 13 16 13 15 10 16 16 27 22 20 20 8 11 30 7 27 28 28 27 8 10 19 10 17 6 11 25 16 15 34 47 57
19 12 89 83 11 15 6 5 4 9 10 13 13 11 17 10 7 16 12 17 39 24 27 19 9 8 8 11 13 14 26 35 32 8 22 18 23 8 27 25 8 25 41 49 58
20 7 28 41 12 24 21 13 7 11 11 12 8 17 13 11 16 6 9 7 36 22 23 25 9 14 14 6 3 13 33 42 40 21 19 30 30 41 42 22 13 10 45 50 66
12 9 19 17 14 28 17 8 18 9 12 27 8 19 16 9 13 14 12 12 15 23 12 11 12 18 32 35 23 19 23 43 43 49 26 23 28 38 46 34 6 15 39 53 62
8 11 24 21 35 21 28 18 13 19 13 13 14 17 24 17 13 7 10 9 11 20 18 12 7 5 14 34 44 33 33 36 49 35 40 19 38 32 48 34 11 38 46 49 60
19 11 23 35 23 24 20 18 21 10 19 24 24 19 21 28 43 52 30 28 12 15 18 7 5 3 17 7 20 14 48 40 44 33 29 27 31 19 23 15 5 30 48 58 65
Wind_Direction_850mb
306 304 290 276 271 272 276 273 261 251 249 233 198 205 217 223 232 243 243 233 232 238 250 260 264 255 254 234 210 193 185 227 219 186 235 107 153 204 320 275 233 198 212 259 307
289 304 293 276 269 267 269 264 256 244 235 220 209 214 226 232 245 255 244 233 221 232 249 270 278 276 220 230 217 188 216 229 215 212 258 238 305 302 328 310 260 228 216 248 290
286 292 295 282 265 264 266 256 251 244 235 231 219 205 225 229 236 260 259 238 228 239 250 257 267 285 232 217 217 216 242 258 289 246 254 266 249 265 270 262 248 240 237 225 274
273 280 289 283 264 260 259 246 240 237 234 232 225 218 214 187 205 170 192 227 234 217 228 239 240 235 258 220 231 269 258 238 259 264 279 258 266 246 239 252 281 270 240 218 224
264 267 281 281 270 257 253 238 235 231 232 225 217 208 196 216 228 164 150 118 160 196 216 230 241 214 227 256 257 234 252 273 271 266 272 279 272 254 259 274 282 276 258 252 244
254 261 271 281 265 258 247 234 230 226 222 216 205 205 209 221 241 194 163 159 145 154 198 217 226 240 274 258 240 296 303 281 265 262 273 269 273 276 271 277 267 277 251 249 262
244 254 261 273 259 258 241 232 231 231 226 217 207 222 230 240 229 214 221 201 181 204 241 252 245 234 306 288 289 283 297 297 252 250 245 275 271 253 271 279 276 268 263 246 261
240 250 252 259 255 254 236 222 234 226 235 228 228 241 251 256 217 199 211 228 231 208 225 241 246 270 245 293 309 291 265 261 231 210 242 199 246 183 252 260 265 267 266 255 261
246 243 245 246 244 244 228 224 235 238 233 220 231 247 268 233 232 216 214 216 202 211 223 243 246 240 220 244 272 198 255 242 294 220 238 205 268 231 250 261 265 269 271 264 261
249 240 237 238 237 235 215 220 227 224 204 208 221 262 249 223 194 203 215 210 183 198 218 237 204 191 170 201 229 238 256 231 225 220 251 259 270 272 275 266 261 257 264 265 264
245 239 234 231 231 226 197 189 172 214 198 199 208 216 144 188 200 206 195 191 192 169 169 197 203 207 214 220 249 310 293 283 297 296 339 285 287 284 270 265 260 261 266 264 262
261 238 231 226 218 207 204 194 198 126 240 233 234 227 197 169 205 194 184 170 172 185 130 288 239 220 203 206 238 249 266 272 271 276 296 292 284 276 270 269 258 252 256 260 260
286 234 230 221 208 199 205 209 210 263 280 262 230 233 232 230 222 209 188 191 164 171 184 212 204 202 210 226 231 237 240 260 267 305 287 298 283 271 255 245 255 244 251 257 260
265 247 224 215 186 195 204 207 213 243 347 246 198 234 198 194 242 224 200 170 185 198 199 239 236 239 249 234 212 252 188 231 248 247 256 244 279 246 250 246 236 236 236 245 246
259 274 214 211 179 191 202 187 188 172 348 147 168 158 178 173 149 191 199 195 177 178 166 221 208 215 232 230 210 238 228 225 234 240 260 250 273 273 223 261 270 243 234 237 240
256 261 215 195 188 197 185 165 157 93 251 178 139 174 156 203 190 107 176 210 157 199 214 237 200 185 218 234 212 270 235 251 240 230 248 237 223 267 232 228 258 259 246 239 231
257 258 250 200 183 173 159 145 130 208 83 169 186 176 189 174 210 178 186 198 206 196 225 221 236 286 233 182 171 193 218 259 208 219 239 241 221 243 263 248 232 237 255 246 232
249 254 260 193 183 161 155 123 156 205 186 115 142 135 188 167 211 197 185 217 213 161 209 208 253 201 204 208 164 195 198 209 246 214 221 213 239 241 216 229 237 244 244 243 218
243 252 245 192 171 163 150 157 202 199 158 145 138 172 200 208 196 200 223 236 216 197 222 205 247 170 209 210 187 170 211 215 250 264 277 237 291 288 246 238 237 229 225 220 212
256 201 212 162 164 160 153 209 214 191 126 158 168 192 195 193 193 186 206 225 223 190 192 241 272 219 183 167 217 203 159 177 196 227 247 262 253 238 252 238 236 224 210 208 201
40 127 175 164 163 161 184 214 228 204 144 156 196 179 208 192 191 196 222 267 198 191 179 186 194 187 138 202 188 198 226 241 180 206 220 310 267 213 297 289 235 214 192 182 182
180 133 166 158 151 182 181 181 194 170 170 103 169 211 199 189 197 203 221 240 187 146 188 198 195 224 223 202 212 206 215 203 210 228 233 301 261 189 350 314 216 190 176 174 175
176 148 163 161 152 175 161 187 260 150 172 173 185 207 213 214 216 191 208 224 177 169 170 174 215 241 230 192 188 207 214 206 221 263 211 214 253 210 325 355 290 153 152 156 160
156 133 150 191 156 171 182 185 197 260 218 198 216 174 205 236 232 237 234 262 181 185 154 169 229 227 235 177 142 203 201 204 210 228 233 232 283 301 308 327 339 140 145 154 164
184 151 159 182 195 166 188 189 193 207 188 210 216 232 203 235 226 235 228 246 150 173 176 219 241 212 240 251 243 241 217 201 211 218 227 254 264 275 282 293 261 170 147 154 167
243 141 170 160 172 159 184 218 199 199 201 214 224 213 223 239 233 224 207 211 191 184 205 203 262 240 252 238 226 232 224 222 210 217 232 259 250 233 260 277 201 168 164 165 173
342 78 146 164 166 183 198 201 223 185 228 231 202 230 238 235 231 256 274 275 237 182 189 193 250 231 283 308 131 215 223 214 199 206 209 222 245 277 299 308 208 176 179 177 181